Location: ??????
(41.3164°N, 22.6615°E)
Time: 20:58:35
(UTC+00:00)

CUBESAT XI-V - Pass Details

Date: 07 July 2022
Orbit: 668 x 690 km, 98.1° (Epoch: 11 August)

Event Time Altitude Azimuth Distance (km) Brightness Sun altitude
Exits shadow 22:57:31 11° 97° (E) 2,044 ? -26.0°
Maximum altitude 22:59:57 16° 63° (ENE) 1,753 ? -25.9°
Drops below altitude 10° 23:02:38 10° 27° (NNE) 2,103 ? -25.8°
Sets 23:05:39 0° 6° (N) 3,020 ? -25.8°
